FENGYUN 1C DEB, 30377

Orbit data source: Space-Track

FENGYUN 1C DEB, 30377 is space debris in SSO originally from a launch on Mon, 10 May 1999 UTC launched from the Taiyaun Space Center, China (TSC). Fengyun 1C debris stems from the Chinese weather satellite Fengyun-1C, which was intentionally destroyed by a Chinese anti-satellite missile in 2007. This event dramatically increased the amount of space debris, with thousands of trackable fragments posing hazards to satellites and human spaceflight. The Fengyun 1C debris cloud has become a focal point in discussions about space sustainability and the need for international regulations to prevent the creation of new debris.

Loading next visibility...
Identifier
30377, 1999-025ACQ
Orbit
SSO
Country
Flag of CNCN / PRC
Related business
Manufacturer
Unknown
Mission
Spacecraft
Bus & Motor
Unknown
Mass
Unknown
Launch date (UTC)
1999-05-10 (27 years ago)
Launch vehicle
Unknown
Launch site
Taiyaun Space Center, China (TSC)
Object type
Payload
Rocket body
Debris
Shape & HBR
Unknown shape, 0.1 m
Radar Cross Section
Medium (>0.1 m² and <1 m²)

Expand to show TLE details & history
Last TLE update: 16 hours ago

TLE from 16 hours ago
0 FENGYUN 1C DEB
1 30377U 99025ACQ 26256.03699168  .00000277  00000-0  20717-3 0  9994
2 30377  98.8786 272.4544 0117663 226.4213 159.2702 13.99431031   448
Epoch: 2026-09-13T00:53Z
TLE epoch observation values (Epoch: 2026-09-13T00:53:16.081Z)
Latitude
25.85787°
Longitude
-97.21954°
Altitude
979.059 km
Speed
7.324 km/s
True Right ascension
17h 52m 32s
True Declination
25° 43' 38"
Sunlit
Object was in daylight at epoch
Visualization orbit readout
Latitude
Unknown
Longitude
Unknown
Altitude
Unknown
Speed
Unknown
Apparent Right ascension
Unknown
Apparent Declination
Unknown
Sunlit
N/A
Visualization observer readout
Local Sidereal Time
09:29:06
Azimuth
Unknown
Elevation
Unknown
Doppler factor
Unknown
Orbital elements
Apogee altitude
978.514 km
Perigee altitude
807.406 km
Semi-major axis
7,271.097 km
Eccentricity
0.01177
Inclination
98.8786°
RAAN
272.4544°
Arg. of periapsis
226.4213°
True anomaly
159.74097°
Mean anomaly
159.2702°
Eccentric anomaly
159.50623°
Mean motion
3.50061 °/min
Orbital period
102.84 mins
BSTAR
0.00020717
Loading maneuver chart data...
Computing Atmospheric mass density...

Documentation

Showing up to 5 results
|